Weather History for Baton Rouge, LA

Change the Weather History Date:

Monday, October 10, 2011

  Actual Average Record
Temperature  
Mean Temperature 73 °F 71 °F  
Max Temperature 83 °F 82 °F 93 °F (1921)
Min Temperature 63 °F 60 °F 41 °F (1908)
Degree Days  
Heating Degree Days 0 1  
Month to date heating degree days 4 5  
Since 1 July heating degree days 4 7  
Cooling Degree Days 8 7  
Month to date cooling degree days 47 80  
Year to date cooling degree days 2896 2651  
Growing Degree Days 22 (Base 50)    
Moisture  
Dew Point 65 °F    
Average Humidity 74    
Maximum Humidity 93    
Minimum Humidity 55    
Precipitation  
Precipitation 0.00 in 0.14 in 2.44 in (1934)
Month to date precipitation T 1.39  
Year to date precipitation 38.72 47.64  
Snow  
Snow 0.00 in - - ()
Month to date snowfall 0.0  
Since 1 July snowfall 0.0  
Since 1 September snowfall 0.0  
Snow Depth 0.00 in    
Sea Level Pressure  
Sea Level Pressure 29.95 in    
Wind  
Wind Speed 4 mph (NE)    
Max Wind Speed 12 mph    
Max Gust Speed 18 mph    
Visibility 10 miles    
Events      
T = Trace of Precipitation, MM = Missing Value Source: NWS Daily Summary

Daily Weather History Graph

Daily Weather History Graph

Search for Another Location

Airport:

Trip Planner

Search our weather history database for the weather conditions in past years. The results will help you decide how hot, cold, wet, or windy it might be!

Date:

Astronomy

Oct. 10, 2011 Rise Set
Actual Time 7:03 AM CDT 6:39 PM CDT
Civil Twilight 6:39 AM CDT 7:03 PM CDT
Nautical Twilight 6:11 AM CDT 7:31 PM CDT
Astronomical Twilight 5:43 AM CDT 7:59 PM CDT
Moon 5:43 PM CDT (10/10) 5:47 AM CDT (10/10)
Length of Visible Light 12h 24m
Length of Day
11h 35m
Waxing Gibbous, 98% of the Moon is Illuminated
Oct 10
Waxing Gibbous
Oct 11
Full
Oct 19
Last Quarter
Oct 26
New
Nov 2
First Quarter

Hourly Weather History & Observations

Time (CDT) Temp. Heat Index Dew Point Humidity Pressure Visibility Wind Dir Wind Speed Gust Speed Precip Events Conditions
12:53 AM 69.1 °F - 64.0 °F 84% 30.00 in 10.0 mi East 8.1 mph - N/A   Clear
1:53 AM 66.9 °F - 64.0 °F 90% 30.00 in 10.0 mi ENE 5.8 mph - N/A   Clear
2:53 AM 66.0 °F - 64.0 °F 93% 29.99 in 10.0 mi ENE 6.9 mph - N/A   Clear
3:53 AM 64.9 °F - 63.0 °F 93% 29.98 in 10.0 mi NE 4.6 mph - N/A   Clear
4:53 AM 64.0 °F - 63.0 °F 96% 29.98 in 10.0 mi NE 5.8 mph - N/A   Clear
5:53 AM 64.0 °F - 62.1 °F 93% 29.98 in 10.0 mi NE 5.8 mph - N/A   Clear
6:53 AM 63.0 °F - 61.0 °F 93% 29.98 in 10.0 mi NE 5.8 mph - N/A   Clear
7:53 AM 64.0 °F - 62.1 °F 93% 29.99 in 10.0 mi NE 5.8 mph - N/A   Clear
8:53 AM 68.0 °F - 64.0 °F 87% 30.01 in 10.0 mi ENE 8.1 mph - N/A   Clear
9:53 AM 71.1 °F - 64.0 °F 78% 30.01 in 10.0 mi East 9.2 mph - N/A   Clear
10:53 AM 73.9 °F - 64.9 °F 73% 30.01 in 10.0 mi Variable 5.8 mph - N/A   Clear
11:53 AM 77.0 °F - 66.0 °F 69% 30.00 in 10.0 mi NNE 4.6 mph - N/A   Scattered Clouds
12:53 PM 79.0 °F - 66.0 °F 64% 29.97 in 10.0 mi ENE 4.6 mph - N/A   Scattered Clouds
1:53 PM 82.0 °F 84.1 °F 66.0 °F 58% 29.94 in 10.0 mi Variable 3.5 mph - N/A   Scattered Clouds
2:53 PM 82.9 °F 84.6 °F 64.9 °F 54% 29.92 in 10.0 mi Variable 6.9 mph - N/A   Partly Cloudy
3:53 PM 82.0 °F 83.4 °F 64.0 °F 54% 29.90 in 10.0 mi NNE 6.9 mph - N/A   Mostly Cloudy
4:53 PM 81.0 °F 82.7 °F 64.9 °F 58% 29.89 in 10.0 mi Calm Calm - N/A   Clear
5:53 PM 79.0 °F - 66.0 °F 64% 29.89 in 10.0 mi Calm Calm - N/A   Clear
6:53 PM 77.0 °F - 68.0 °F 74% 29.89 in 10.0 mi Calm Calm - N/A   Partly Cloudy
7:53 PM 73.9 °F - 66.9 °F 79% 29.90 in 10.0 mi NNW 3.5 mph - N/A   Partly Cloudy
8:53 PM 73.0 °F - 68.0 °F 84% 29.91 in 10.0 mi Calm Calm - N/A   Clear
9:53 PM 72.0 °F - 66.0 °F 81% 29.92 in 10.0 mi NNE 4.6 mph - N/A   Clear
10:53 PM 70.0 °F - 66.0 °F 87% 29.91 in 10.0 mi Calm Calm - N/A   Clear
11:53 PM 69.1 °F - 64.9 °F 87% 29.91 in 10.0 mi Calm Calm - N/A   Clear